When you browse on this site, cookies collect data to enhance your experience and personalize the content and advertising you see.
Visit our Privacy Policy to learn more. By continuing to use the site, you agree to this use of cookies and data.
  • In United Kingdom
  • List of Countries
  • For 7 days
  • Water Temperature
  • Weather Map
  • Weather Widgets
  • user-avatar
    Login

    Hourly Weather Aberlady

    Today, 7 June, Sunday

    Time Temperature Precipitation Wind Pressure Humidity
    00:00 +10°C° 0 mm 3 mps 746 mmHg 91%
    01:00 +10°C° 0.3 mm 3 mps 746 mmHg 91%
    02:00 +10°C° 0.3 mm 3 mps 747 mmHg 91%
    03:00 +10°C° 0.3 mm 3 mps 747 mmHg 91%
    04:00 +10°C° 0 mm 3 mps 748 mmHg 90%
    05:00 +10°C° 0 mm 3 mps 748 mmHg 89%
    06:00 +10°C° 0 mm 3 mps 749 mmHg 88%
    07:00 +11°C° 0 mm 3 mps 749 mmHg 84%
    08:00 +12°C° 0 mm 4 mps 750 mmHg 81%
    09:00 +12°C° 0 mm 4 mps 751 mmHg 77%
    10:00 +13°C° 0.1 mm 4 mps 751 mmHg 75%
    11:00 +13°C° 0.1 mm 5 mps 752 mmHg 74%
    12:00 +13°C° 0.1 mm 5 mps 753 mmHg 72%
    13:00 +13°C° 0 mm 6 mps 753 mmHg 72%
    14:00 +13°C° 0 mm 6 mps 754 mmHg 73%
    15:00 +11°C° 0 mm 6 mps 754 mmHg 73%
    16:00 +11°C° 0 mm 6 mps 755 mmHg 74%
    17:00 +10°C° 0 mm 6 mps 755 mmHg 74%
    18:00 +9°C° 0 mm 6 mps 755 mmHg 74%
    19:00 +8°C° 0 mm 5 mps 756 mmHg 75%
    20:00 +7°C° 0 mm 5 mps 757 mmHg 77%
    21:00 +6°C° 0 mm 5 mps 757 mmHg 78%
    22:00 +5°C° 0 mm 4 mps 758 mmHg 79%
    23:00 +5°C° 0 mm 4 mps 758 mmHg 79%

    Tomorrow, 8 June, Monday

    Time Temperature Precipitation Wind Pressure Humidity
    00:00 +4°C° 0 mm 3 mps 758 mmHg 80%
    01:00 +4°C° 0 mm 3 mps 758 mmHg 81%
    02:00 +4°C° 0 mm 3 mps 759 mmHg 81%
    03:00 +3°C° 0 mm 3 mps 759 mmHg 82%
    04:00 +4°C° 0 mm 3 mps 759 mmHg 78%
    05:00 +6°C° 0 mm 2 mps 759 mmHg 75%
    06:00 +7°C° 0 mm 2 mps 759 mmHg 72%
    07:00 +8°C° 0 mm 2 mps 759 mmHg 69%
    08:00 +9°C° 0 mm 2 mps 760 mmHg 66%
    09:00 +10°C° 0 mm 2 mps 760 mmHg 63%
    10:00 +10°C° 0 mm 2 mps 760 mmHg 63%
    11:00 +10°C° 0 mm 2 mps 760 mmHg 63%
    12:00 +12°C° 0 mm 2 mps 760 mmHg 63%
    13:00 +12°C° 0 mm 2 mps 760 mmHg 62%
    14:00 +13°C° 0 mm 2 mps 760 mmHg 62%
    15:00 +13°C° 0 mm 1 mps 760 mmHg 62%
    16:00 +13°C° 0 mm 2 mps 760 mmHg 64%
    17:00 +12°C° 0 mm 3 mps 760 mmHg 67%
    18:00 +11°C° 0 mm 3 mps 759 mmHg 70%
    19:00 +10°C° 0 mm 3 mps 760 mmHg 74%
    20:00 +9°C° 0 mm 3 mps 760 mmHg 78%
    21:00 +7°C° 0 mm 2 mps 760 mmHg 82%
    22:00 +7°C° 0 mm 2 mps 760 mmHg 83%
    23:00 +7°C° 0 mm 2 mps 760 mmHg 84%

    Day after tomorrow, 9 June, Tuesday

    Time Temperature Precipitation Wind Pressure Humidity
    00:00 +6°C° 0 mm 2 mps 760 mmHg 85%
    01:00 +6°C° 0 mm 2 mps 760 mmHg 86%
    02:00 +7°C° 0 mm 1 mps 760 mmHg 87%
    03:00 +7°C° 0 mm 1 mps 760 mmHg 88%
    04:00 +8°C° 0 mm 1 mps 760 mmHg 87%
    05:00 +9°C° 0 mm 1 mps 760 mmHg 85%
    06:00 +9°C° 0 mm 1 mps 759 mmHg 84%
    07:00 +11°C° 0 mm 1 mps 759 mmHg 79%
    08:00 +12°C° 0 mm 2 mps 759 mmHg 75%
    09:00 +13°C° 0 mm 2 mps 759 mmHg 70%
    10:00 +14°C° 0 mm 2 mps 759 mmHg 68%
    11:00 +14°C° 0 mm 2 mps 759 mmHg 67%
    12:00 +15°C° 0 mm 2 mps 759 mmHg 65%
    13:00 +15°C° 0 mm 2 mps 759 mmHg 65%
    14:00 +16°C° 0 mm 3 mps 759 mmHg 64%
    15:00 +16°C° 0 mm 3 mps 758 mmHg 64%
    16:00 +16°C° 0 mm 3 mps 758 mmHg 65%
    17:00 +14°C° 0 mm 3 mps 758 mmHg 67%
    18:00 +14°C° 0 mm 3 mps 758 mmHg 68%
    19:00 +13°C° 0 mm 3 mps 758 mmHg 68%
    20:00 +12°C° 0 mm 3 mps 758 mmHg 67%
    21:00 +11°C° 0 mm 4 mps 758 mmHg 67%
    22:00 +10°C° 0.1 mm 4 mps 758 mmHg 71%
    23:00 +10°C° 0.1 mm 4 mps 758 mmHg 76%

    10 June, Wednesday

    Time Temperature Precipitation Wind Pressure Humidity
    00:00 +8°C° 0.1 mm 4 mps 757 mmHg 80%
    01:00 +9°C° 0 mm 3 mps 757 mmHg 81%
    02:00 +9°C° 0 mm 3 mps 757 mmHg 82%
    03:00 +9°C° 0 mm 3 mps 757 mmHg 84%
    04:00 +9°C° 0.4 mm 3 mps 757 mmHg 87%
    05:00 +10°C° 0.4 mm 3 mps 756 mmHg 90%
    06:00 +10°C° 0.4 mm 3 mps 756 mmHg 93%
    07:00 +11°C° 0.1 mm 3 mps 756 mmHg 90%
    08:00 +12°C° 0.1 mm 3 mps 756 mmHg 86%
    09:00 +13°C° 0.1 mm 3 mps 757 mmHg 82%
    10:00 +13°C° 0.2 mm 3 mps 756 mmHg 77%
    11:00 +15°C° 0.2 mm 2 mps 756 mmHg 72%
    12:00 +16°C° 0.2 mm 2 mps 756 mmHg 68%
    13:00 +15°C° 0.6 mm 2 mps 756 mmHg 71%
    14:00 +14°C° 0.6 mm 3 mps 756 mmHg 75%
    15:00 +14°C° 0.6 mm 4 mps 756 mmHg 78%
    16:00 +13°C° 0.6 mm 5 mps 756 mmHg 82%
    17:00 +12°C° 0.6 mm 5 mps 756 mmHg 87%
    18:00 +10°C° 0.6 mm 5 mps 756 mmHg 91%
    19:00 +10°C° 0.4 mm 5 mps 757 mmHg 92%
    20:00 +9°C° 0.4 mm 5 mps 757 mmHg 94%
    21:00 +10°C° 0.4 mm 4 mps 758 mmHg 95%
    22:00 +9°C° 0.3 mm 5 mps 758 mmHg 96%
    23:00 +9°C° 0.3 mm 5 mps 758 mmHg 96%

    11 June, Thursday

    Time Temperature Precipitation Wind Pressure Humidity
    00:00 +9°C° 0.3 mm 5 mps 758 mmHg 96%
    01:00 +9°C° 0.3 mm 5 mps 759 mmHg 96%
    02:00 +9°C° 0.3 mm 5 mps 759 mmHg 96%
    03:00 +9°C° 0.3 mm 6 mps 760 mmHg 96%
    04:00 +9°C° 0.2 mm 5 mps 760 mmHg 96%
    05:00 +9°C° 0.2 mm 5 mps 761 mmHg 96%
    06:00 +9°C° 0.2 mm 5 mps 762 mmHg 96%
    07:00 +10°C° 0.2 mm 5 mps 762 mmHg 95%
    08:00 +10°C° 0.2 mm 5 mps 763 mmHg 94%
    09:00 +10°C° 0.2 mm 5 mps 763 mmHg 93%
    10:00 +11°C° 0.1 mm 6 mps 763 mmHg 89%
    11:00 +13°C° 0.1 mm 6 mps 764 mmHg 85%
    12:00 +13°C° 0.1 mm 6 mps 764 mmHg 82%
    13:00 +13°C° 0.1 mm 6 mps 764 mmHg 80%
    14:00 +13°C° 0.1 mm 6 mps 764 mmHg 79%
    15:00 +13°C° 0.1 mm 5 mps 764 mmHg 78%
    16:00 +13°C° 0 mm 5 mps 764 mmHg 77%
    17:00 +13°C° 0 mm 5 mps 764 mmHg 77%
    18:00 +12°C° 0 mm 4 mps 764 mmHg 77%
    19:00 +11°C° 0 mm 4 mps 764 mmHg 82%
    20:00 +9°C° 0 mm 3 mps 764 mmHg 86%
    21:00 +8°C° 0 mm 2 mps 764 mmHg 91%
    22:00 +8°C° 0 mm 2 mps 763 mmHg 92%
    23:00 +7°C° 0 mm 3 mps 763 mmHg 92%

    12 June, Friday

    Time Temperature Precipitation Wind Pressure Humidity
    00:00 +7°C° 0 mm 3 mps 763 mmHg 93%
    01:00 +7°C° 0 mm 3 mps 762 mmHg 93%
    02:00 +7°C° 0 mm 3 mps 762 mmHg 93%
    03:00 +7°C° 0 mm 4 mps 762 mmHg 93%
    04:00 +7°C° 0 mm 4 mps 761 mmHg 91%
    05:00 +8°C° 0 mm 4 mps 761 mmHg 89%
    06:00 +8°C° 0 mm 4 mps 761 mmHg 87%
    07:00 +9°C° 0 mm 5 mps 760 mmHg 85%
    08:00 +10°C° 0 mm 5 mps 760 mmHg 83%
    09:00 +12°C° 0 mm 5 mps 760 mmHg 81%
    10:00 +13°C° 0 mm 5 mps 759 mmHg 78%
    11:00 +14°C° 0 mm 6 mps 759 mmHg 75%
    12:00 +15°C° 0 mm 6 mps 758 mmHg 72%
    13:00 +15°C° 0 mm 6 mps 758 mmHg 74%
    14:00 +15°C° 0 mm 7 mps 758 mmHg 76%
    15:00 +15°C° 0 mm 7 mps 757 mmHg 78%
    16:00 +14°C° 0 mm 7 mps 757 mmHg 80%
    17:00 +13°C° 0 mm 6 mps 757 mmHg 82%
    18:00 +13°C° 0 mm 6 mps 756 mmHg 84%
    19:00 +11°C° 0 mm 6 mps 757 mmHg 86%
    20:00 +10°C° 0 mm 5 mps 757 mmHg 88%
    21:00 +10°C° 0 mm 5 mps 757 mmHg 90%
    22:00 +10°C° 0.2 mm 5 mps 757 mmHg 90%
    23:00 +10°C° 0.2 mm 5 mps 756 mmHg 90%
    Show more